sat.trackr.live / text

‹ back to catalog

STARLINK-36449

NORAD 67308 · 2026-002D

PAYLOAD ACTIVE UNKNOWN

§ Identity

Operator
Country
US
Launch date
2026-01-04
Launch site
AFETR
Launch vehicle
Mass (kg)
RCS (m²)

Purposes: comms

External: N2YO · Heavens-Above · Gunter

§ Orbital elements

Epoch: 2026-05-25T00:37:54.722784Z

Period
94.27 min
Inclination
43.0045°
Eccentricity
0.0001893
Mean motion
15.27573235 rev/d
Perigee alt
481.8 km
Apogee alt
484.4 km
Semi-major
6,861.2 km
B*
6.8164e-4
RAAN
254.1568°
Arg perigee
278.5094°
Mean anomaly
81.5543°
Rev number
2,281

§ Raw data

STARLINK-364491 67308U 26002D   26145.02632781  .00018539  00000+0  68164-3 0  99942 67308  43.0045 254.1568 0001893 278.5094  81.5543 15.27573235 22818

JSON: /api/v1/satellites/67308 · /tle

For live sub-satellite position, see the globe view (requires WebGL).

§ Visibility from observer

Set your observer location to see the next 7 days of passes ≥ 10°. The values pass through the URL so the page stays shareable.

No JS? Fill the form by hand. The geolocation button needs JavaScript.